timestamp,surface_pressure_avg,surface_temp_avg,battery_voltage,lat,long
2017-09-19 00:00:00+00:00,345.8011,14.7,13.05,47.84626,-54.09684
2017-09-19 00:10:00+00:00,342.9563,14.7,12.97,47.84626,-54.09684
2017-09-19 00:20:00+00:00,337.2195,14.7,13.05,47.84626,-54.09684
2017-09-19 00:30:00+00:00,328.0779,14.7,13.05,47.84626,-54.09684
2017-09-19 00:40:00+00:00,323.2279,14.73,13.05,47.84626,-54.09684
2017-09-19 00:50:00+00:00,313.493,14.79,13.05,47.84626,-54.09684
2017-09-19 01:00:00+00:00,301.4697,14.8,12.97,47.84626,-54.09684
2017-09-19 01:10:00+00:00,291.3813,14.8,12.97,47.84626,-54.09684
2017-09-19 01:20:00+00:00,284.7047,14.8,12.97,47.84626,-54.09684
2017-09-19 01:30:00+00:00,272.2414,14.8,12.97,47.84626,-54.09684
2017-09-19 01:40:00+00:00,259.1964,14.8,13.05,47.84626,-54.09684
2017-09-19 01:50:00+00:00,250.5964,14.8,13.05,47.84626,-54.09684
2017-09-19 02:00:00+00:00,244.5314,14.8,12.97,47.84626,-54.09684
2017-09-19 02:10:00+00:00,235.9048,14.8,12.89,47.84626,-54.09684
2017-09-19 02:20:00+00:00,229.6981,14.8,12.97,47.84626,-54.09684
2017-09-19 02:30:00+00:00,224.1014,14.8,12.97,47.84626,-54.09684
2017-09-19 02:40:00+00:00,215.8698,14.8,12.97,47.84626,-54.09684
2017-09-19 02:50:00+00:00,208.6848,14.8,12.97,47.84626,-54.09684
2017-09-19 03:00:00+00:00,202.6615,14.8,12.97,47.84626,-54.09684
2017-09-19 03:10:00+00:00,195.7465,14.8,12.89,47.84626,-54.09684
2017-09-19 03:20:00+00:00,190.6515,14.8,12.97,47.84626,-54.09684
2017-09-19 03:30:00+00:00,187.8932,14.8,12.97,47.84626,-54.09684
2017-09-19 03:40:00+00:00,181.7881,14.8,12.97,47.84626,-54.09684
2017-09-19 03:50:00+00:00,176.8448,14.8,12.97,47.84626,-54.09684
2017-09-19 04:00:00+00:00,177.5598,14.8,12.97,47.84626,-54.09684
2017-09-19 04:10:00+00:00,178.3031,14.8,12.89,47.84626,-54.09684
2017-09-19 04:20:00+00:00,174.4915,14.9,12.97,47.84626,-54.09684
2017-09-19 04:30:00+00:00,171.3782,14.9,12.97,47.84626,-54.09684
2017-09-19 04:40:00+00:00,173.7781,14.94,12.97,47.84626,-54.09684
2017-09-19 04:50:00+00:00,172.1232,15.0,12.97,47.84626,-54.09684
2017-09-19 05:00:00+00:00,168.8615,15.0,12.97,47.84626,-54.09684
2017-09-19 05:10:00+00:00,172.6465,15.0,12.89,47.84626,-54.09684
2017-09-19 05:20:00+00:00,175.7365,15.07,12.97,47.84626,-54.09684
2017-09-19 05:30:00+00:00,173.4515,15.08,12.97,47.84626,-54.09684
2017-09-19 05:40:00+00:00,176.3765,15.08,12.97,47.84626,-54.09684
2017-09-19 05:50:00+00:00,184.8165,15.09,12.97,47.84626,-54.09684
2017-09-19 06:00:00+00:00,188.3965,15.1,12.89,47.84626,-54.09684
2017-09-19 06:10:00+00:00,192.9048,15.1,12.89,47.84626,-54.09684
2017-09-19 06:20:00+00:00,202.5548,15.07,12.97,47.84626,-54.09684
2017-09-19 06:30:00+00:00,206.7731,15.07,12.97,47.84626,-54.09684
2017-09-19 06:40:00+00:00,208.4115,15.0,12.97,47.84626,-54.09684
2017-09-19 06:50:00+00:00,215.9881,14.85,12.97,47.84626,-54.09684
2017-09-19 07:00:00+00:00,223.1548,14.8,12.89,47.84626,-54.09684
2017-09-19 07:10:00+00:00,225.8048,14.8,12.89,47.84626,-54.09684
2017-09-19 07:20:00+00:00,230.7148,14.83,12.97,47.84626,-54.09684
2017-09-19 07:30:00+00:00,239.4114,14.8,12.97,47.84626,-54.09684
2017-09-19 07:40:00+00:00,246.1681,14.79,12.97,47.84626,-54.09684
2017-09-19 07:50:00+00:00,251.0214,14.84,12.97,47.84626,-54.09684
2017-09-19 08:00:00+00:00,254.8114,14.9,12.89,47.84626,-54.09684
2017-09-19 08:10:00+00:00,261.3381,14.9,12.81,47.84626,-54.09684
2017-09-19 08:20:00+00:00,270.8797,14.88,12.89,47.84626,-54.09684
2017-09-19 08:30:00+00:00,282.1614,14.88,12.89,47.84626,-54.09684
2017-09-19 08:40:00+00:00,289.013,14.8,12.97,47.84626,-54.09684
2017-09-19 08:50:00+00:00,294.3997,14.8,12.97,47.84626,-54.09684
2017-09-19 09:00:00+00:00,303.6913,14.8,12.89,47.84626,-54.09684
2017-09-19 09:10:00+00:00,313.0997,14.8,12.81,47.84626,-54.09684
2017-09-19 09:20:00+00:00,316.7195,14.8,12.89,47.84626,-54.09684
2017-09-19 09:30:00+00:00,320.9897,14.8,12.89,47.84626,-54.09684
2017-09-19 09:40:00+00:00,330.8679,14.8,13.05,47.84626,-54.09684
2017-09-19 09:50:00+00:00,336.8096,14.78,13.29,47.84626,-54.09684
2017-09-19 10:00:00+00:00,338.9347,14.79,13.53,47.84626,-54.09684
2017-09-19 10:10:00+00:00,342.1846,14.8,13.53,47.84626,-54.09684
2017-09-19 10:20:00+00:00,348.5479,14.8,13.68,47.84626,-54.09684
2017-09-19 10:30:00+00:00,348.3345,14.81,13.53,47.84626,-54.09684
2017-09-19 10:40:00+00:00,346.1979,14.88,13.44,47.84626,-54.09684
2017-09-19 10:50:00+00:00,348.1097,14.87,13.44,47.84626,-54.09684
2017-09-19 11:00:00+00:00,348.5462,14.82,13.29,47.84626,-54.09684
2017-09-19 11:10:00+00:00,345.9313,14.85,13.21,47.84626,-54.09684
2017-09-19 11:20:00+00:00,343.1746,14.8,13.29,47.84626,-54.09684
2017-09-19 11:30:00+00:00,342.658,14.8,13.29,47.84626,-54.09684
2017-09-19 11:40:00+00:00,341.2112,14.85,13.29,47.84626,-54.09684
2017-09-19 11:50:00+00:00,338.2797,14.89,13.29,47.84626,-54.09684
2017-09-19 12:00:00+00:00,337.2229,14.8,13.21,47.84626,-54.09684
2017-09-19 12:10:00+00:00,332.0479,14.8,13.13,47.84626,-54.09684
2017-09-19 12:20:00+00:00,327.5096,14.8,13.29,47.84626,-54.09684
2017-09-19 12:30:00+00:00,320.9147,14.8,13.29,47.84626,-54.09684
2017-09-19 12:40:00+00:00,317.8329,14.8,13.53,47.84626,-54.09684
2017-09-19 12:50:00+00:00,315.0247,14.8,13.44,47.84626,-54.09684
2017-09-19 13:00:00+00:00,307.6214,14.77,13.44,47.84626,-54.09684
2017-09-19 13:10:00+00:00,297.683,14.8,13.53,47.84626,-54.09684
2017-09-19 13:20:00+00:00,287.3248,14.8,13.44,47.84626,-54.09684
2017-09-19 13:30:00+00:00,279.6981,14.8,13.53,47.84626,-54.09684
2017-09-19 13:40:00+00:00,269.3531,14.8,13.44,47.84626,-54.09684
2017-09-19 13:50:00+00:00,259.3797,14.7,13.44,47.84626,-54.09684
2017-09-19 14:00:00+00:00,250.2014,14.76,13.44,47.84626,-54.09684
2017-09-19 14:10:00+00:00,240.5931,14.78,13.44,47.84626,-54.09684
2017-09-19 14:20:00+00:00,229.5148,14.79,13.53,47.84626,-54.09684
2017-09-19 14:30:00+00:00,220.6464,14.8,13.6,47.84626,-54.09684
2017-09-19 14:40:00+00:00,215.6198,14.8,13.76,47.84626,-54.09684
2017-09-19 14:50:00+00:00,208.4031,14.8,13.68,47.84626,-54.09684
2017-09-19 15:00:00+00:00,199.0681,14.8,13.6,47.84626,-54.09684
2017-09-19 15:10:00+00:00,193.3015,14.8,13.44,47.84626,-54.09684
2017-09-19 15:20:00+00:00,188.5582,14.8,13.53,47.84626,-54.09684
2017-09-19 15:30:00+00:00,180.3631,14.79,13.44,47.84626,-54.09684
2017-09-19 15:40:00+00:00,174.9332,14.76,13.44,47.84626,-54.09684
2017-09-19 15:50:00+00:00,172.6365,14.71,13.37,47.84626,-54.09684
2017-09-19 16:00:00+00:00,170.5365,14.7,13.37,47.84626,-54.09684
2017-09-19 16:10:00+00:00,171.3598,14.6,13.29,47.84626,-54.09684
2017-09-19 16:20:00+00:00,172.1248,14.58,13.37,47.84626,-54.09684
2017-09-19 16:30:00+00:00,168.6265,14.54,13.37,47.84626,-54.09684
2017-09-19 16:40:00+00:00,165.7899,14.6,13.37,47.84626,-54.09684
2017-09-19 16:50:00+00:00,168.1298,14.45,13.29,47.84626,-54.09684
2017-09-19 17:00:00+00:00,170.7781,14.45,13.29,47.84626,-54.09684
2017-09-19 17:10:00+00:00,168.5265,14.5,13.21,47.84626,-54.09684
2017-09-19 17:20:00+00:00,169.7648,14.56,13.21,47.84626,-54.09684
2017-09-19 17:30:00+00:00,174.4365,14.58,13.21,47.84626,-54.09684
2017-09-19 17:40:00+00:00,172.6015,14.58,13.21,47.84626,-54.09684
2017-09-19 17:50:00+00:00,169.8015,14.5,13.21,47.84626,-54.09684
2017-09-19 18:00:00+00:00,176.5615,14.5,13.13,47.84626,-54.09684
2017-09-19 18:10:00+00:00,183.5565,14.5,13.05,47.84626,-54.09684
2017-09-19 18:20:00+00:00,183.8381,14.5,13.13,47.84626,-54.09684
2017-09-19 18:30:00+00:00,188.5265,14.55,13.13,47.84626,-54.09684
2017-09-19 18:40:00+00:00,198.5381,14.54,13.13,47.84626,-54.09684
2017-09-19 18:50:00+00:00,203.5031,14.5,13.13,47.84626,-54.09684
2017-09-19 19:00:00+00:00,206.2064,14.5,13.05,47.84626,-54.09684
2017-09-19 19:10:00+00:00,214.3581,14.5,13.05,47.84626,-54.09684
2017-09-19 19:20:00+00:00,220.2381,14.5,13.05,47.84626,-54.09684
2017-09-19 19:30:00+00:00,222.2747,14.5,13.05,47.84626,-54.09684
2017-09-19 19:40:00+00:00,229.5464,14.49,13.05,47.84626,-54.09684
2017-09-19 19:50:00+00:00,238.7264,14.47,13.05,47.84626,-54.09684
2017-09-19 20:00:00+00:00,242.3397,14.4,13.05,47.84626,-54.09684
2017-09-19 20:10:00+00:00,246.3864,14.4,12.97,47.84626,-54.09684
2017-09-19 20:20:00+00:00,252.1814,14.4,13.05,47.84626,-54.09684
2017-09-19 20:30:00+00:00,259.3298,14.4,13.05,47.84626,-54.09684
2017-09-19 20:40:00+00:00,267.6364,14.4,13.05,47.84626,-54.09684
2017-09-19 20:50:00+00:00,275.5281,14.4,13.05,47.84626,-54.09684
2017-09-19 21:00:00+00:00,283.4246,14.4,12.97,47.84626,-54.09684
2017-09-19 21:10:00+00:00,293.913,14.4,12.97,47.84626,-54.09684
2017-09-19 21:20:00+00:00,305.5897,14.4,12.97,47.84626,-54.09684
2017-09-19 21:30:00+00:00,313.0647,14.4,12.97,47.84626,-54.09684
2017-09-19 21:40:00+00:00,317.1597,14.4,13.05,47.84626,-54.09684
2017-09-19 21:50:00+00:00,327.9562,14.4,13.05,47.84626,-54.09684
2017-09-19 22:00:00+00:00,339.173,14.4,12.97,47.84626,-54.09684
2017-09-19 22:10:00+00:00,344.068,14.4,12.89,47.84626,-54.09684
2017-09-19 22:20:00+00:00,347.6413,14.4,12.97,47.84626,-54.09684
2017-09-19 22:30:00+00:00,356.9746,14.4,12.97,47.84626,-54.09684
2017-09-19 22:40:00+00:00,363.3163,14.4,12.97,47.84626,-54.09684
2017-09-19 22:50:00+00:00,362.8412,14.47,12.97,47.84626,-54.09684
2017-09-19 23:00:00+00:00,364.7029,14.5,12.97,47.84626,-54.09684
2017-09-19 23:10:00+00:00,370.3812,14.5,12.89,47.84626,-54.09684
2017-09-19 23:20:00+00:00,368.9246,14.5,12.97,47.84626,-54.09684
2017-09-19 23:30:00+00:00,364.7413,14.5,12.97,47.84626,-54.09684
2017-09-19 23:40:00+00:00,366.6312,14.5,12.97,47.84626,-54.09684
2017-09-19 23:50:00+00:00,367.4464,14.52,12.97,47.84626,-54.09684
